Regional Weather Roundup
Issued by NWS

Home | Current Version | Previous Version | Graphics & Text | Print | Product List | Glossary On
Versions: 1 2 3 4 5 6 7 8 9 10 11 12 13 14 15 16 17 18 19 20 21 22 23 24 25 26 27 28 29 30 31 32 33 34 35 36 37 38 39 40 41 42 43 44 45 46 47 48 49 50
000
ASUS43 KIND 020909
RWRIN

WEATHER ROUNDUP FOR INDIANA
NATIONAL WEATHER SERVICE INDIANAPOLIS IN
500 AM EDT SUN AUG 02 2015

NOTE: "FAIR" INDICATES FEW OR NO CLOUDS BELOW 12,000 FEET WITH NO
SIGNIFICANT WEATHER AND/OR OBSTRUCTIONS TO VISIBILITY.

* - STATION DOES NOT REPORT WEATHER SUCH AS PRECIPITATION OR FOG.

+ - STATION NOT QUALITY CONTROLLED BY THE NATIONAL WEATHER SERVICE.
    USE DATA WITH CAUTION...ESPECIALLY DEWPOINT AND RELATIVE
    HUMIDITY OBSERVATIONS.

INZ001>003-010>013-019-020-021000-
NORTHWEST INDIANA

CITY           SKY/WX    TMP DP  RH WIND       PRES   REMARKS
GARY /AIRPORT/ CLEAR     72  66  83 CALM      29.89F
KNOX *+        CLEAR     64  63  94 SW6       29.91R
LA PORTE +     CLEAR     68  67  98 SW6       29.91S
MICHIGAN CITY+ CLEAR     68  61  77 SW7       29.90S
MONTICELLO +   CLEAR     65  63  93 S7        29.92F
RENSSELAER +   CLEAR     64  63  94 CALM      29.92S
VALPARAISO     CLEAR     67  63  87 SW6       29.91F

$$

LMZ046-743>745-021000-
SOUTHERN LAKE MICHIGAN

STATION/POSITION TIME  TEMP    WIND        PRES    WAVE
                       AIR SEA DIR/SP/G            HT
                 (UTC) (F)     (DEG/KT/KT) (MB)    (FT)
BURNS HARBOR     0800   73     230/ 11/ 13 1012.9R
MICHIGAN CITY    0800   72     200/ 12/ 13   N/A
5NW MICH CITY    0900   73 74  230/ 14/ 17   N/A     2

$$

INZ004-005-014>016-021>024-021000-
NORTH CENTRAL INDIANA

CITY           SKY/WX    TMP DP  RH WIND       PRES   REMARKS
GOSHEN         CLEAR     65  62  90 SW7       29.91S
LOGANSPORT +   CLEAR     63  57  82 SW5       29.94S
PERU/GRISSOM   CLEAR     64  61  88 SW8       29.93F
ROCHESTER +    CLEAR     70  63  78 SW6       29.92F
SOUTH BEND     CLEAR     68  63  84 SW6       29.91S
WARSAW +       CLEAR     68  61  77 W7        29.92S

$$

INZ006>009-017-018-025>027-021000-
NORTHEAST INDIANA

CITY           SKY/WX    TMP DP  RH WIND       PRES   REMARKS
ANGOLA *+      CLEAR     66  63  88 VRB3      29.91S
AUBURN +       CLEAR     66  61  82 SW6       29.92S
FORT WAYNE     CLEAR     65  61  87 SW8       29.93S
HUNTINGTON +   CLEAR     67  61  81 SW5       29.92F

$$

INZ028-029-035-036-043>045-051>053-021000-
WEST CENTRAL INDIANA

CITY           SKY/WX    TMP DP  RH WIND       PRES   REMARKS
CRAWFORDSVL +  CLEAR     61  60  96 S5          N/A
GREENCASTLE +  CLEAR     61  55  82 CALM      29.98S
LAFAYETTE      CLEAR     63  61  93 CALM      29.94S
TERRE HAUTE    CLEAR     60  58  92 CALM      29.97S

$$

INZ030>032-037>040-046>048-054>057-064-065-021000-
CENTRAL INDIANA

CITY           SKY/WX    TMP DP  RH WIND       PRES   REMARKS
FISHERS *+     PTCLDY    66  61  82 SW3       29.96F
FRANKFORT +    CLEAR    N/A N/A N/A S5        29.96F
GREENWOOD *+   PTCLDY    63  57  82 S3        29.97F
INDIANAPOLIS   PTCLDY    65  58  78 SW6       29.95F
-EAGLE CREEK   CLEAR     65  60  84 CALM      29.96F
KOKOMO *+      CLEAR     66  57  72 SW8       29.94F
MARION +       CLEAR     62  58  86 SW7       29.95F
MT COMFORT *+  PTCLDY    63 N/A N/A CALM      29.97F
SHELBYVILLE    PTCLDY    64  60  87 S3        29.97F
ZIONSVILLE +   CLEAR     61  58  87 SW3       29.97S

$$

INZ033-034-041-042-049-050-058-059-021000-
EAST CENTRAL INDIANA

CITY           SKY/WX    TMP DP  RH WIND       PRES   REMARKS
MUNCIE         CLEAR     65  58  78 SW7       29.96F

$$

INZ060-061-067>069-081>083-085>088-021000-
SOUTHWEST INDIANA

CITY           SKY/WX    TMP DP  RH WIND       PRES   REMARKS
EVANSVILLE     CLOUDY    67  64  90 CALM      29.97F
HUNTINGBURG *+ MOCLDY    63  61  94 CALM      29.98F
WASHINGTON +   MOCLDY    64  60  87 CALM      29.97F

$$

INZ062-063-066-070>080-084-089>092-021000-
SOUTH CENTRAL AND SOUTHEAST INDIANA

CITY           SKY/WX    TMP DP  RH WIND       PRES   REMARKS
BLOOMINGTON    PTCLDY    61  59  93 CALM      29.98F
MADISON *+     MOCLDY    61  59  94 CALM      30.01F
NORTH VERNON + MOCLDY    64  64 100 CALM      29.99F
SEYMOUR +      MOCLDY    63  63 100 CALM      29.99S

$$




USA.gov is the U.S. government's official web portal to all federal, state and local government web resources and services.